Hourly Data Report for November 06, 2019

OTTAWA INTL A
ONTARIO
Current Station Operator: NAVCAN

45°19'00.000" N
75°40'00.000" W
114.90 m
6106001
71628
YOW

Download Data

Hourly Data (November 2019)
Hourly Data Report for November 6, 2019
TIME Temp Definition
°C
Dew Point Definition
°C
Rel Hum Definition
%
Wind Dir Definition
10's deg

Wind Spd Definition
km/h
Visibility Definition
km
Stn Press Definition
kPa
Hmdx Definition


Wind Chill Definition


Weather Definition


00:00 1.5 -1.8 79 23 13 24.1 100.58     LegendNANA
01:00 1.5 -1.5 81 23 10 24.1 100.59     Mostly Cloudy
02:00 1.1 -1.8 81 22 12 24.1 100.61     LegendNANA
03:00 1.0 -1.7 82 23 19 24.1 100.62     LegendNANA
04:00 0.8 -1.7 83 30 17 24.1 100.71     Mostly Cloudy
05:00 0.6 -1.4 86 28 13 24.1 100.79     Snow
06:00 0.0 -3.1 80 31 27 9.7 100.91   -6 Snow,Fog
07:00 -1.1 -3.8 82 28 14 24.1 101.00   -6 Mainly Clear
08:00 -0.5 -3.2 82 26 14 24.1 101.13   -5 LegendNANA
09:00 1.0 -5.3 63 26 18 24.1 101.21     LegendNANA
10:00 1.9 -6.8 53 26 20 24.1 101.25     Mostly Cloudy
11:00 3.1 -7.2 47 25 23 24.1 101.25     LegendNANA
12:00 3.3 -6.9 47 25 21 24.1 101.19     LegendNANA
13:00 3.7 -6.2 48 25 16 24.1 101.11     Mainly Clear
14:00 3.9 -6.6 46 23 26 24.1 101.04     LegendNANA
15:00 3.7 -6.3 48 23 22 24.1 101.05     LegendNANA
16:00 3.5 -6.1 50 23 16 24.1 101.05     Mostly Cloudy
17:00 2.8 -5.5 55 21 9 24.1 101.00     LegendNANA
18:00 2.5 -5.4 56 18 13 24.1 100.96     LegendNANA
19:00 2.9 -5.1 56 21 23 24.1 100.93     Cloudy
20:00 2.5 -4.7 59 23 13 24.1 100.88     LegendNANA
21:00 2.5 -5.1 57 22 15 24.1 100.88     LegendNANA
22:00 2.4 -5.3 57 23 13 24.1 100.86     Snow
23:00 2.0 -3.5 67 22 20 24.1 100.82     Snow

Notes on Data Quality.

Legend

  • E = Estimated
  • M = Missing
  • NA = Not Available*
  • [empty] = Indicates an unobserved value
Date modified: